Location: Yellowknife
(62.4500°N, 114.3500°W)
Time: 04:10:20
(UTC-06:00)

Amateur Radio Satellites - All Passes

Search period start: 30 August 2014 03:40
Search period end: 31 August 2014 03:40
Location: Yellowknife, 62.4500°N, 114.3500°W

Satellite Date Start Highest point End Downlink Frequencies (MHz)
Time Altitude Azimuth
PCSat 30 Aug 03:43:40 03:47:36 21° 247° (WSW) 03:51:31 145.825 MHz
Oscar 19 30 Aug 03:48:53 03:54:09 80° 108° (ESE) 03:59:22 437.125 CW, 437.150 USB
OPAL 30 Aug 04:08:59 04:14:05 74° 62° (ENE) 04:19:17 ?
JAS-1B 30 Aug 04:11:07 04:18:42 62° 101° (E) 04:25:01 435.800 - 435.900 CW/SSB
STRAND 1 30 Aug 04:15:35 04:18:40 16° 32° (NNE) 04:21:45 ?
ITAMSAT 1 30 Aug 04:19:26 04:24:38 71° 106° (ESE) 04:29:50 435.822 SSB
KITSAT 1 30 Aug 04:20:26 04:28:34 74° 345° (NNW) 04:36:42 435.175 FM
AO-Echo 30 Aug 04:22:48 04:27:35 82° 108° (ESE) 04:32:17 ?
Oscar 16 30 Aug 04:23:46 04:28:57 66° 296° (WNW) 04:34:07 437.025 USB, Beacon 2401.1428
TMSAT-1 30 Aug 04:24:13 04:29:12 39° 96° (E) 04:34:10 436.925 FM
Saudisat 1A 30 Aug 04:25:11 04:29:37 66° 2° (N) 04:34:03 436.775 MHz
Uribyol 2 30 Aug 04:29:38 04:34:52 84° 109° (ESE) 04:40:05 436.500 FM
AO-7 30 Aug 04:35:49 04:42:14 24° 82° (E) 04:48:36 29.400 - 29.500 MHz
AO-27 30 Aug 04:48:21 04:53:34 80° 293° (WNW) 04:58:46 436.795 MHz FM
SO-50 30 Aug 05:06:16 05:09:34 20° 122° (ESE) 05:12:55 436.795 FM
Gurwin Techsat 1B 30 Aug 05:12:00 05:17:22 87° 110° (ESE) 05:22:43 435.225 FM
Uosat F 30 Aug 05:12:30 05:16:40 26° 90° (E) 05:20:49 435.120 FM
Oscar 19 30 Aug 05:28:34 05:33:11 32° 310° (NW) 05:37:46 437.125 CW, 437.150 USB
OPAL 30 Aug 05:48:55 05:53:27 31° 264° (W) 05:58:05 ?
STRAND 1 30 Aug 05:52:03 05:56:47 40° 54° (NE) 06:01:32 ?
ITAMSAT 1 30 Aug 05:59:14 06:03:55 36° 308° (NW) 06:08:36 435.822 SSB
JAS-1B 30 Aug 06:01:53 06:09:20 51° 309° (NW) 06:15:35 435.800 - 435.900 CW/SSB
AO-Echo 30 Aug 06:01:59 06:06:01 28° 310° (NW) 06:10:01 ?
Oscar 16 30 Aug 06:03:35 06:07:37 23° 318° (NW) 06:11:39 437.025 USB, Beacon 2401.1428
TMSAT-1 30 Aug 06:04:12 06:09:26 60° 298° (WNW) 06:14:38 436.925 FM
Saudisat 1A 30 Aug 06:04:58 06:09:26 85° 205° (SSW) 06:13:53 436.775 MHz
Uribyol 2 30 Aug 06:09:28 06:14:00 31° 311° (NW) 06:18:31 436.500 FM
KITSAT 1 30 Aug 06:16:35 06:24:43 73° 13° (NNE) 06:32:50 435.175 FM
AO-27 30 Aug 06:28:17 06:32:34 27° 315° (NW) 06:36:50 436.795 MHz FM
AO-7 30 Aug 06:28:30 06:36:48 65° 107° (ESE) 06:45:01 29.400 - 29.500 MHz
SO-50 30 Aug 06:44:54 06:49:24 59° 144° (SE) 06:54:02 436.795 FM
Hamsat 30 Aug 06:47:05 06:50:40 24° 89° (E) 06:54:13 145.90 MHz
Uosat F 30 Aug 06:51:02 06:56:05 85° 292° (WNW) 07:01:07 435.120 FM
Gurwin Techsat 1B 30 Aug 06:52:20 06:56:57 31° 312° (NW) 07:01:32 435.225 FM
Oscar 19 30 Aug 07:08:31 07:11:15 15° 333° (NNW) 07:13:58 437.125 CW, 437.150 USB
UOSAT-12 30 Aug 07:09:09 07:12:55 24° 125° (SE) 07:16:42 437.025 FM, 437.400 FM
JAS-2 30 Aug 07:09:39 07:14:20 33° 93° (E) 07:19:06 435.800 - 435.900 CW/SSB, 435.910 FM
RS-15 30 Aug 07:20:13 07:26:49 19° 95° (E) 07:33:23 29.354 - 29.394 USB, Beacon 29.352 USB
STRAND 1 30 Aug 07:30:51 07:35:54 60° 256° (WSW) 07:40:58 ?
ITAMSAT 1 30 Aug 07:39:19 07:42:14 15° 332° (NNW) 07:45:09 435.822 SSB
AO-Echo 30 Aug 07:41:48 07:43:31 12° 334° (NNW) 07:45:14 ?
Oscar 16 30 Aug 07:43:37 07:45:25 12° 342° (NNW) 07:47:14 437.025 USB, Beacon 2401.1428
TMSAT-1 30 Aug 07:44:36 07:48:34 22° 321° (NW) 07:52:31 436.925 FM
Saudisat 1A 30 Aug 07:44:44 07:48:42 33° 227° (SW) 07:52:40 436.775 MHz
Uribyol 2 30 Aug 07:49:33 07:52:11 14° 335° (NNW) 07:54:48 436.500 FM
JAS-1B 30 Aug 07:52:12 07:58:27 26° 336° (NNW) 08:03:55 435.800 - 435.900 CW/SSB
SO-67 30 Aug 08:06:13 08:08:57 21° 91° (E) 08:11:40 435.3500 MHz FM
AO-27 30 Aug 08:08:26 08:10:39 13° 339° (NNW) 08:12:53 436.795 MHz FM
KITSAT 1 30 Aug 08:12:18 08:20:24 74° 220° (SW) 08:28:26 435.175 FM
AO-7 30 Aug 08:21:35 08:29:39 57° 312° (NW) 08:37:41 29.400 - 29.500 MHz
Hamsat 30 Aug 08:22:44 08:27:09 77° 291° (WNW) 08:31:30 145.90 MHz
SO-50 30 Aug 08:25:23 08:30:00 74° 347° (NNW) 08:34:45 436.795 FM
Uosat F 30 Aug 08:30:14 08:34:25 27° 314° (NW) 08:38:34 435.120 FM
Gurwin Techsat 1B 30 Aug 08:32:52 08:35:34 14° 335° (NNW) 08:38:15 435.225 FM
UOSAT-12 30 Aug 08:47:48 08:52:29 67° 147° (SSE) 08:57:13 437.025 FM, 437.400 FM
HO-68 30 Aug 08:50:12 08:54:19 16° 75° (ENE) 08:58:26 435.675 MHz FM
JAS-2 30 Aug 08:54:47 08:59:57 66° 296° (WNW) 09:05:12 435.800 - 435.900 CW/SSB, 435.910 FM
STRAND 1 30 Aug 09:13:06 09:16:12 16° 279° (W) 09:19:18 ?
Oscar 16 30 Aug 09:22:34 09:22:48 10° 6° (N) 09:23:02 437.025 USB, Beacon 2401.1428
TMSAT-1 30 Aug 09:25:07 09:26:51 12° 344° (NNW) 09:28:35 436.925 FM
RS-15 30 Aug 09:26:00 09:36:15 49° 123° (ESE) 09:46:31 29.354 - 29.394 USB, Beacon 29.352 USB
SO-67 30 Aug 09:38:53 09:42:21 63° 291° (WNW) 09:45:48 435.3500 MHz FM
JAS-1B 30 Aug 09:41:01 09:46:47 21° 3° (N) 09:51:58 435.800 - 435.900 CW/SSB
Hamsat 30 Aug 09:59:15 10:02:35 22° 312° (NW) 10:05:54 145.90 MHz
SO-50 30 Aug 10:06:14 10:10:55 72° 11° (N) 10:15:42 436.795 FM
UKube-1 30 Aug 10:07:17 10:10:21 18° 87° (E) 10:13:24 145.840 MHz, 145.915 MHz
KITSAT 1 30 Aug 10:07:55 10:14:50 33° 245° (WSW) 10:21:44 435.175 FM
Uosat F 30 Aug 10:09:46 10:11:50 13° 337° (NNW) 10:13:54 435.120 FM
Gurwin Techsat 1B 30 Aug 10:12:59 10:13:36 10° 360° (N) 10:14:13 435.225 FM
Oscar 11 30 Aug 10:13:58 10:16:48 17° 84° (E) 10:19:37 145.825 FM, Beacon 2401.500 USB
AO-7 30 Aug 10:14:09 10:21:12 33° 338° (NNW) 10:28:14 29.400 - 29.500 MHz
Oscar 19 30 Aug 10:23:52 10:26:06 13° 22° (NNE) 10:28:19 437.125 CW, 437.150 USB
UOSAT-12 30 Aug 10:28:01 10:32:45 71° 350° (N) 10:37:31 437.025 FM, 437.400 FM
HO-68 30 Aug 10:37:02 10:43:58 49° 100° (E) 10:50:52 435.675 MHz FM
FUNcube-1 30 Aug 10:38:26 10:40:53 14° 81° (E) 10:43:20 145.950 - 145.970 MHz USB
JAS-2 30 Aug 10:40:27 10:44:23 22° 320° (NW) 10:48:21 435.800 - 435.900 CW/SSB, 435.910 FM
ITAMSAT 1 30 Aug 10:55:21 10:57:27 13° 20° (NNE) 10:59:33 435.822 SSB
AO-Echo 30 Aug 10:56:15 10:57:16 11° 22° (NNE) 10:58:17 ?
Oscar 16 30 Aug 10:57:14 11:00:20 16° 31° (NNE) 11:03:27 437.025 USB, Beacon 2401.1428
TMSAT-1 30 Aug 11:03:41 11:04:46 11° 9° (N) 11:05:51 436.925 FM
Uribyol 2 30 Aug 11:04:56 11:07:20 13° 23° (NNE) 11:09:45 436.500 FM
SO-67 30 Aug 11:12:53 11:14:50 14° 312° (NW) 11:16:46 435.3500 MHz FM
AO-27 30 Aug 11:23:05 11:25:54 15° 27° (NNE) 11:28:44 436.795 MHz FM
JAS-1B 30 Aug 11:28:04 11:35:13 29° 29° (NNE) 11:41:31 435.800 - 435.900 CW/SSB
RS-15 30 Aug 11:36:50 11:47:49 87° 152° (SSE) 11:58:55 29.354 - 29.394 USB, Beacon 29.352 USB
UKube-1 30 Aug 11:42:53 11:47:16 81° 108° (ESE) 11:51:38 145.840 MHz, 145.915 MHz
SO-50 30 Aug 11:46:54 11:51:34 64° 214° (SW) 11:56:19 436.795 FM
Gurwin Techsat 1B 30 Aug 11:48:57 11:51:38 14° 24° (NNE) 11:54:18 435.225 FM
Oscar 11 30 Aug 11:49:23 11:53:48 72° 106° (ESE) 11:58:10 145.825 FM, Beacon 2401.500 USB
Oscar 19 30 Aug 11:59:43 12:04:00 27° 45° (NE) 12:08:19 437.125 CW, 437.150 USB
AO-7 30 Aug 12:05:23 12:12:02 28° 5° (N) 12:18:40 29.400 - 29.500 MHz
UOSAT-12 30 Aug 12:08:29 12:13:15 76° 14° (NNE) 12:18:01 437.025 FM, 437.400 FM
FUNcube-1 30 Aug 12:13:46 12:18:12 60° 103° (ESE) 12:22:43 145.950 - 145.970 MHz USB
HO-68 30 Aug 12:24:58 12:32:02 65° 303° (WNW) 12:39:06 435.675 MHz FM
JAS-2 30 Aug 12:26:14 12:27:51 11° 346° (NNW) 12:29:29 435.800 - 435.900 CW/SSB, 435.910 FM
AO-Echo 30 Aug 12:30:47 12:34:39 24° 46° (NE) 12:38:26 ?
ITAMSAT 1 30 Aug 12:31:18 12:35:30 26° 44° (NE) 12:39:41 435.822 SSB
Oscar 16 30 Aug 12:33:47 12:38:34 39° 54° (NE) 12:43:22 437.025 USB, Beacon 2401.1428
TMSAT-1 30 Aug 12:39:27 12:42:54 18° 33° (NNE) 12:46:22 436.925 FM
Uribyol 2 30 Aug 12:41:05 12:45:27 29° 47° (NE) 12:49:51 436.500 FM
AO-27 30 Aug 12:59:35 13:04:12 34° 51° (NE) 13:08:50 436.795 MHz FM
JAS-1B 30 Aug 13:15:33 13:24:30 54° 53° (NE) 13:32:11 435.800 - 435.900 CW/SSB
UKube-1 30 Aug 13:19:30 13:23:09 27° 310° (NW) 13:26:47 145.840 MHz, 145.915 MHz
Uosat F 30 Aug 13:23:17 13:25:40 14° 26° (NNE) 13:28:03 435.120 FM
Gurwin Techsat 1B 30 Aug 13:25:40 13:30:14 30° 48° (NE) 13:34:50 435.225 FM
ISS 30 Aug 13:25:51 13:26:01 10° 161° (SSE) 13:26:10 145.800 FM
Oscar 11 30 Aug 13:25:56 13:29:43 29° 307° (NW) 13:33:29 145.825 FM, Beacon 2401.500 USB
SO-50 30 Aug 13:27:50 13:31:31 23° 236° (SW) 13:35:15 436.795 FM
MaSat-1 30 Aug 13:32:41 13:35:22 14° 103° (ESE) 13:38:05 437.345 MHz
Oscar 19 30 Aug 13:37:38 13:42:49 81° 67° (ENE) 13:48:04 437.125 CW, 437.150 USB
UOSAT-12 30 Aug 13:48:45 13:53:26 57° 217° (SW) 13:58:04 437.025 FM, 437.400 FM
RS-15 30 Aug 13:49:43 14:00:43 80° 4° (N) 14:11:56 29.354 - 29.394 USB, Beacon 29.352 USB
FUNcube-1 30 Aug 13:50:27 13:54:29 34° 304° (WNW) 13:58:34 145.950 - 145.970 MHz USB
AO-7 30 Aug 13:55:35 14:03:03 39° 32° (NNE) 14:10:31 29.400 - 29.500 MHz
AO-Echo 30 Aug 14:07:57 14:12:54 76° 67° (ENE) 14:17:43 ?
ITAMSAT 1 30 Aug 14:09:15 14:14:25 76° 66° (ENE) 14:19:37 435.822 SSB
JAS-2 30 Aug 14:09:29 14:10:54 11° 12° (NNE) 14:12:18 435.800 - 435.900 CW/SSB, 435.910 FM
Oscar 16 30 Aug 14:12:38 14:17:47 64° 256° (WSW) 14:22:59 437.025 USB, Beacon 2401.1428
HO-68 30 Aug 14:12:48 14:18:50 31° 328° (NNW) 14:24:51 435.675 MHz FM
TMSAT-1 30 Aug 14:16:48 14:21:48 44° 56° (NE) 14:26:49 436.925 FM
Uribyol 2 30 Aug 14:19:18 14:24:29 88° 69° (ENE) 14:29:43 436.500 FM
AO-27 30 Aug 14:38:16 14:43:28 75° 253° (WSW) 14:48:41 436.795 MHz FM
UKube-1 30 Aug 14:57:15 14:58:09 11° 332° (NNW) 14:59:02 145.840 MHz, 145.915 MHz
Uosat F 30 Aug 14:58:51 15:03:12 30° 49° (NE) 15:07:32 435.120 FM
ISS 30 Aug 14:59:59 15:01:43 14° 181° (S) 15:03:27 145.800 FM
Oscar 11 30 Aug 15:03:35 15:04:44 11° 329° (NNW) 15:05:53 145.825 FM, Beacon 2401.500 USB
Gurwin Techsat 1B 30 Aug 15:04:28 15:09:48 88° 250° (WSW) 15:15:10 435.225 FM
JAS-1B 30 Aug 15:05:29 15:14:58 70° 255° (WSW) 15:23:08 435.800 - 435.900 CW/SSB
MaSat-1 30 Aug 15:06:29 15:11:23 48° 124° (SE) 15:16:19 437.345 MHz
Oscar 19 30 Aug 15:18:20 15:22:46 28° 270° (W) 15:27:14 437.125 CW, 437.150 USB
FUNcube-1 30 Aug 15:27:57 15:29:50 13° 326° (NW) 15:31:44 145.950 - 145.970 MHz USB
UOSAT-12 30 Aug 15:29:27 15:32:50 20° 239° (WSW) 15:36:11 437.025 FM, 437.400 FM
AO-7 30 Aug 15:46:44 15:55:04 77° 57° (ENE) 16:03:23 29.400 - 29.500 MHz
AO-Echo 30 Aug 15:47:58 15:52:11 28° 269° (W) 15:56:20 ?
ITAMSAT 1 30 Aug 15:49:56 15:54:27 30° 268° (W) 15:59:00 435.822 SSB
JAS-2 30 Aug 15:50:21 15:54:18 21° 38° (NE) 15:58:06 435.800 - 435.900 CW/SSB, 435.910 FM
Oscar 16 30 Aug 15:54:49 15:58:12 17° 278° (W) 16:01:37 437.025 USB, Beacon 2401.1428
TMSAT-1 30 Aug 15:56:31 16:01:43 55° 258° (WSW) 16:06:57 436.925 FM
HO-68 30 Aug 15:59:44 16:04:44 21° 353° (N) 16:09:45 435.675 MHz FM
Uribyol 2 30 Aug 16:00:25 16:04:40 25° 271° (W) 16:08:56 436.500 FM
RS-15 30 Aug 16:02:30 16:13:27 80° 214° (SW) 16:24:42 29.354 - 29.394 USB, Beacon 29.352 USB
Hamsat 30 Aug 16:16:41 16:19:42 19° 45° (NE) 16:22:44 145.90 MHz
AO-27 30 Aug 16:20:05 16:23:53 20° 275° (W) 16:27:42 436.795 MHz FM
Uosat F 30 Aug 16:36:36 16:41:38 83° 251° (WSW) 16:46:42 435.120 FM
MaSat-1 30 Aug 16:43:15 16:48:25 67° 326° (NW) 16:53:30 437.345 MHz
Gurwin Techsat 1B 30 Aug 16:46:12 16:50:31 25° 272° (W) 16:54:52 435.225 FM
PCSat 30 Aug 16:56:39 16:57:44 11° 102° (ESE) 16:58:49 145.825 MHz
JAS-1B 30 Aug 16:59:13 17:06:52 27° 278° (W) 17:13:45 435.800 - 435.900 CW/SSB
SO-67 30 Aug 17:19:29 17:20:23 11° 43° (NE) 17:21:16 435.3500 MHz FM
JAS-2 30 Aug 17:33:04 17:38:38 56° 61° (ENE) 17:43:48 435.800 - 435.900 CW/SSB, 435.910 FM
TMSAT-1 30 Aug 17:39:51 17:42:52 15° 281° (W) 17:45:54 436.925 FM
AO-7 30 Aug 17:40:38 17:48:32 45° 262° (W) 17:56:27 29.400 - 29.500 MHz
HO-68 30 Aug 17:45:02 17:50:26 24° 19° (NNE) 17:55:51 435.675 MHz FM
OPAL 30 Aug 17:46:46 17:51:27 32° 96° (E) 17:56:07 ?
Hamsat 30 Aug 17:50:42 17:55:00 63° 66° (ENE) 17:59:21 145.90 MHz
Sapphire 30 Aug 18:06:08 18:10:31 26° 117° (ESE) 18:14:56 437.095 MHz 1200 baud AX-25 AFSK
RS-15 30 Aug 18:14:46 18:24:39 41° 243° (WSW) 18:34:49 29.354 - 29.394 USB, Beacon 29.352 USB
Uosat F 30 Aug 18:17:21 18:21:12 22° 273° (W) 18:25:05 435.120 FM
MaSat-1 30 Aug 18:21:17 18:26:10 40° 349° (N) 18:30:51 437.345 MHz
PCSat 30 Aug 18:34:48 18:39:44 37° 124° (SE) 18:44:42 145.825 MHz
SO-67 30 Aug 18:49:21 18:52:38 41° 64° (ENE) 18:55:57 435.3500 MHz FM
JAS-2 30 Aug 19:18:35 19:24:02 42° 262° (W) 19:29:06 435.800 - 435.900 CW/SSB, 435.910 FM
OPAL 30 Aug 19:25:34 19:30:48 74° 298° (WNW) 19:36:01 ?
Hamsat 30 Aug 19:27:29 19:31:19 29° 268° (W) 19:35:11 145.90 MHz
HO-68 30 Aug 19:30:06 19:36:43 43° 45° (NE) 19:43:21 435.675 MHz FM
STRAND 1 30 Aug 19:30:25 19:34:27 23° 88° (E) 19:38:28 ?
UKube-1 30 Aug 19:38:39 19:41:39 19° 42° (NE) 19:44:39 145.840 MHz, 145.915 MHz
AO-7 30 Aug 19:39:23 19:43:51 15° 288° (WNW) 19:48:20 29.400 - 29.500 MHz
Oscar 11 30 Aug 19:45:22 19:47:56 16° 40° (NE) 19:50:30 145.825 FM, Beacon 2401.500 USB
Sapphire 30 Aug 19:47:53 19:53:18 73° 140° (SE) 19:58:45 437.095 MHz 1200 baud AX-25 AFSK
MaSat-1 30 Aug 19:59:19 20:04:11 40° 13° (NNE) 20:08:42 437.345 MHz
FUNcube-1 30 Aug 20:11:31 20:13:37 13° 36° (NE) 20:15:44 145.950 - 145.970 MHz USB
PCSat 30 Aug 20:17:23 20:22:50 87° 327° (NNW) 20:28:20 145.825 MHz
SO-67 30 Aug 20:22:39 20:25:48 31° 264° (W) 20:28:59 435.3500 MHz FM
RS-15 30 Aug 20:28:44 20:33:38 14° 271° (W) 20:38:35 29.354 - 29.394 USB, Beacon 29.352 USB
OPAL 30 Aug 21:04:49 21:09:06 27° 320° (NW) 21:13:24 ?
STRAND 1 30 Aug 21:09:15 21:14:24 86° 110° (ESE) 21:19:32 ?
JAS-2 30 Aug 21:09:22 21:10:42 11° 285° (WNW) 21:12:01 435.800 - 435.900 CW/SSB, 435.910 FM
UKube-1 30 Aug 21:12:54 21:17:12 60° 64° (ENE) 21:21:30 145.840 MHz, 145.915 MHz
HO-68 30 Aug 21:16:56 21:24:06 81° 249° (WSW) 21:31:19 435.675 MHz FM
Oscar 11 30 Aug 21:19:06 21:23:17 47° 62° (ENE) 21:27:30 145.825 FM, Beacon 2401.500 USB
Sapphire 30 Aug 21:31:36 21:36:59 60° 344° (NNW) 21:42:24 437.095 MHz 1200 baud AX-25 AFSK
MaSat-1 30 Aug 21:36:46 21:41:51 74° 37° (NE) 21:46:26 437.345 MHz
FUNcube-1 30 Aug 21:45:04 21:49:02 39° 59° (ENE) 21:53:06 145.950 - 145.970 MHz USB
PCSat 30 Aug 22:01:23 22:06:44 55° 352° (N) 22:12:06 145.825 MHz
OPAL 30 Aug 22:43:55 22:46:37 14° 344° (NNW) 22:49:18 ?
STRAND 1 30 Aug 22:48:49 22:53:14 30° 312° (NW) 22:57:38 ?
UKube-1 30 Aug 22:49:52 22:53:44 30° 265° (W) 22:57:37 145.840 MHz, 145.915 MHz
Oscar 11 30 Aug 22:55:31 22:59:37 39° 263° (W) 23:03:45 145.825 FM, Beacon 2401.500 USB
KITSAT 1 30 Aug 22:57:51 23:01:06 13° 95° (E) 23:04:21 435.175 FM
HO-68 30 Aug 23:06:55 23:12:55 28° 272° (W) 23:18:58 435.675 MHz FM
MaSat-1 30 Aug 23:14:07 23:18:40 37° 241° (WSW) 23:22:45 437.345 MHz
Sapphire 30 Aug 23:15:45 23:21:07 55° 9° (N) 23:26:28 437.095 MHz 1200 baud AX-25 AFSK
FUNcube-1 30 Aug 23:21:20 23:25:26 47° 261° (W) 23:29:40 145.950 - 145.970 MHz USB
Saudisat 1A 30 Aug 23:40:55 23:43:47 17° 121° (ESE) 23:46:41 436.775 MHz
PCSat 30 Aug 23:45:26 23:50:51 61° 17° (NNE) 23:56:15 145.825 MHz
OPAL 31 Aug 00:21:30 00:23:44 13° 7° (N) 00:25:57 ?
STRAND 1 31 Aug 00:28:41 00:31:07 14° 335° (NNW) 00:33:34 ?
KITSAT 1 31 Aug 00:46:59 00:54:17 39° 120° (ESE) 01:01:36 435.175 FM
Sapphire 31 Aug 00:59:31 01:05:00 88° 33° (NNE) 01:10:28 437.095 MHz 1200 baud AX-25 AFSK
FUNcube-1 31 Aug 01:02:01 01:03:00 11° 283° (WNW) 01:04:00 145.950 - 145.970 MHz USB
Saudisat 1A 31 Aug 01:18:18 01:22:36 53° 142° (SE) 01:26:56 436.775 MHz
PCSat 31 Aug 01:29:04 01:34:30 71° 221° (SW) 01:39:55 145.825 MHz
Oscar 19 31 Aug 01:39:07 01:41:52 14° 79° (ENE) 01:44:37 437.125 CW, 437.150 USB
OPAL 31 Aug 01:57:20 02:01:01 20° 31° (NNE) 02:04:44 ?
AO-Echo 31 Aug 02:05:54 02:07:13 11° 77° (ENE) 02:08:32 ?
ITAMSAT 1 31 Aug 02:12:17 02:14:34 13° 77° (ENE) 02:16:52 435.822 SSB
Oscar 16 31 Aug 02:13:20 02:17:28 23° 87° (E) 02:21:35 437.025 USB, Beacon 2401.1428
Uribyol 2 31 Aug 02:21:43 02:24:45 15° 80° (E) 02:27:47 436.500 FM
JAS-1B 31 Aug 02:39:52 02:45:38 24° 78° (ENE) 02:50:44 435.800 - 435.900 CW/SSB
AO-27 31 Aug 02:40:34 02:44:17 19° 84° (E) 02:47:58 436.795 MHz FM
KITSAT 1 31 Aug 02:40:53 02:49:01 83° 145° (SE) 02:57:09 435.175 FM
Sapphire 31 Aug 02:43:09 02:48:05 36° 237° (WSW) 02:52:59 437.095 MHz 1200 baud AX-25 AFSK
Saudisat 1A 31 Aug 02:57:43 03:02:10 76° 345° (NNW) 03:06:38 436.775 MHz
Gurwin Techsat 1B 31 Aug 03:10:01 03:13:39 18° 82° (E) 03:17:16 435.225 FM
PCSat 31 Aug 03:12:54 03:17:15 25° 244° (WSW) 03:21:35 145.825 MHz
Oscar 19 31 Aug 03:17:20 03:22:28 53° 101° (E) 03:27:33 437.125 CW, 437.150 USB
